カタログに戻る

STARLINK-32269

運用中通信VLEO
NORAD 60377·PAYLOAD·🇺🇸 United States

打ち上げ Aug 4, 2024 から Vandenberg Space Force Base

Loading…

次のパス (今後24時間)

TLE

最新Source: CelesTrak SupGP

元期: Sep 14, 2026, 21:37 UTC

1 60377C 24138Y   26257.90118056 -.00065793  00000+0 -21151-2 0  2573
2 60377  53.1568 149.7034 0001257  92.5182 181.4702 15.31744118    12

AllMySatでSTARLINK-32269をリアルタイム追跡

Download on the App Store